Deer Park, WA
on Wednesday, November 7, 2012

Wednesday
Previous Day Next Day
Daily Summary
 ActualAverageRecord
Temperature
Mean Temperature °F 37°F  
Max Temperature 52°F 46°F 59°F (2006)
Min Temperature 23°F 28°F 13°F (2011)
Degree Days
Heating Degree Days 27 28  
Month to date heating degree days 133 191  
Since 1 July heating degree days 1045 1259  
Cooling Degree Days 0 0  
Month to date cooling degree days 0 0  
Year to date cooling degree days 232 187  
Moisture
Dew Point 32°F   
Average Humidity 69    
Maximum Humidity 100    
Minimum Humidity 38    
Precipitation
Precipitation T in 0.10 in 0.69 in (2013)
Month to date precipitation 0.17 0.71  
Year to date precipitation 20.17 16.77  
Wind
Wind Speed 7 mph   
Max Wind Speed 17 mph   
Max Gust Speed 23 mph   
Visibility 9 miles   
Events Rain   

Key: T is trace of precipitation, MM is missing value
Source: NWS Daily Summary
Time(PST)TemperatureDew PointHumidity Pressure Visibility Wind DirectionWind SpeedGust SpeedPrecipitationEvents Conditions
12:15 AM 51.8°F 50.0°F 94% 29.86 in 4.0 miles SSE 6.9 mph - 0.00 in Rain Light Rain
12:53 AM 51.1°F 50.0°F 96% 29.87 in 4.0 miles South 8.1 mph - 0.00 in   Overcast
1:50 AM 50.0°F 48.2°F 94% 29.87 in 5.0 miles South 10.4 mph - N/A   Overcast
1:53 AM 50.0°F 48.9°F 96% 29.87 in 5.0 miles South 10.4 mph - N/A   Overcast
2:53 AM 48.9°F 46.9°F 93% 29.87 in 6.0 miles South 6.9 mph - N/A   Overcast
4:53 AM 42.1°F 37.9°F 85% 29.90 in 10.0 miles South 8.1 mph - N/A   Clear
5:53 AM 37.9°F 32.0°F 79% 29.93 in 10.0 miles SE 5.8 mph - N/A   Clear
6:53 AM 37.9°F 30.9°F 76% 29.96 in 10.0 miles South 9.2 mph - N/A   Clear
7:53 AM 41.0°F 32.0°F 70% 29.96 in 10.0 miles South 11.5 mph - N/A   Clear
8:53 AM 45.0°F 32.0°F 60% 29.97 in 10.0 miles SW 9.2 mph - N/A   Clear
9:53 AM 48.9°F 30.0°F 48% 29.97 in 10.0 miles SW 9.2 mph - N/A   Partly Cloudy
10:53 AM 48.9°F 30.0°F 48% 29.98 in 10.0 miles SW 12.7 mph - N/A   Overcast
11:53 AM 51.1°F 30.0°F 44% 29.98 in 10.0 miles SW 12.7 mph - N/A   Clear
12:53 PM 51.1°F 28.0°F 41% 29.99 in 10.0 miles SSW 11.5 mph - N/A   Clear
1:53 PM 51.1°F 27.0°F 39% 29.99 in 10.0 miles SSW 12.7 mph - N/A   Partly Cloudy
2:53 PM 50.0°F 26.1°F 39% 30.00 in 10.0 miles SSW 12.7 mph - N/A   Clear
3:53 PM 46.9°F 24.1°F 41% 30.01 in 10.0 miles SW 6.9 mph - N/A   Clear
4:53 PM 35.1°F 26.1°F 70% 30.04 in 10.0 miles Calm Calm - N/A   Clear
5:53 PM 30.9°F 26.1°F 82% 30.06 in 10.0 miles Calm Calm - N/A   Clear
6:53 PM 28.9°F 25.0°F 85% 30.06 in 10.0 miles SE 6.9 mph - N/A   Clear
7:53 PM 27.0°F 24.1°F 89% 30.06 in 10.0 miles SE 4.6 mph - N/A   Clear
8:53 PM 27.0°F 24.1°F 89% 30.04 in 10.0 miles Calm Calm - N/A   Clear
9:53 PM 27.0°F 24.1°F 89% 30.04 in 10.0 miles Calm Calm - N/A   Clear
10:53 PM 25.0°F 23.0°F 92% 30.02 in 10.0 miles Calm Calm - N/A   Clear
11:53 PM 24.1°F 21.9°F 91% 30.01 in 10.0 miles NNW 3.5 mph - N/A   Clear
Moon Phase
Nov. 07 Nov. 13 Nov. 20 Nov. 28 Dec. 06
Sunrise:06:44 AM (PST) Moon Rise:No Moon Rise/
Sunset:04:21 PM (PST) Moon Set:01:00 PM (PST)11/7

Copyright © 2014 The Weather Underground, Inc.